Location: Ago
(8.4667°N, 4.4833°E)
Time: 22:23:37
(UTC+00:00)

Cosmos 1125 Rocket - Pass Details

Date: 18 September 2020
Orbit: 757 x 780 km, 74.0° (Epoch: 20 October)

Event Time Altitude Azimuth Distance (km) Brightness Sun altitude
Rises 18:45:42 0° 182° (S) 3,231 6.7 -17.0°
Reaches altitude 10° 18:48:08 10° 177° (S) 2,308 5.9 -17.6°
Maximum altitude 18:53:13 51° 102° (ESE) 962 3.6 -18.9°
Drops below altitude 10° 18:58:19 10° 26° (NNE) 2,318 5.8 -20.1°
Sets 19:00:45 0° 22° (NNE) 3,247 6.6 -20.7°
